User: anonymous   Login
Location: Bakov nad Jizerou
(50.4784°N, 14.9394°E)
Time: 21:48:42
(UTC+00:00)
Language:

deb Agena D - Orbit

View from above orbital plane
View from above orbital plane
View from above satellite
View from above satellite

Ground track
Ground track

The orbit data is extracted from the following two-line orbital elements,

1 05507U 70025LL  22021.51039295  .00001205  00000-0  63065-3 0  9993
2 05507  99.2421 315.1837 0034224 344.3939  15.6176 14.16069623622806
Epoch (UTC): 21 January 2022 12:14:57
Eccentricity: 0.0034224
inclination: 99.2421°
perigee height: 814 km
apogee height: 863 km
right ascension of ascending node: 315.1837°
argument of perigee: 344.3939°
revolutions per day: 14.16069623
mean anomaly at epoch: 15.6176°
orbit number at epoch: 62280

The dashed part of the orbit path shows where the satellite is in the earth's shadow,  

DLR